Al Farabi 2 (43805 NORAD) Tracking and Keplerian Element Data

This shows tracking and keplerian element data for the satellite.

Feedback or suggestion? Click here.




ElementValue
Catalog43805
NameAl Farabi 2
Epoch Orbit569
Epoch Day10.83118258
Epoch Year2019
RAAN84.6048
Inclination97.7616
Eccentricity0.0016471
Argument of Perigee135.6648
Mean Anonmoly224.5895
Mean Motion14.95181021
Decay Rate3.44E-06
L11 43805U 18099AZ 19010.83118258 .00000344 00000-0 36563-4 0 9992
L22 43805 97.7616 84.6048 0016471 135.6648 224.5895 14.95181021 5697

Live tracking and technical data element details for Al Farabi 2 (NORAD 43805). Al Farabi 2 can be tracked NOW for your location showing map with azimuth and elevation plus other details from your city location.

Track the satellite on the map from your city or location and see movement details for azimuth, elevation, latitude, longitude, range, height, and movement on the map or in text.







IsCatalogInMostPopularTable: catalog: 43805, numindb: 19
Update: records affected: 1



GetName: 43805 Al Farabi 2

Hit Count: updated at: Thu, 17 Jan 2019 16:07:45 GMT